Time,TemperatureF,DewpointF,PressureIn,WindDirection,WindDirectionDegrees,WindSpeedMPH,WindSpeedGustMPH,Humidity,HourlyPrecipIn,Conditions,Clouds,dailyrainin,SoftwareType,DateUTC
2013-07-31 00:02:00,65.0,53.0,-100.00,NNE,20,0.0,4.0,66,0.00,,,-99.99,,2013-07-31 05:02:00,
2013-07-31 00:32:00,64.0,53.0,-100.00,SSE,150,0.0,1.0,68,0.00,,,-99.99,,2013-07-31 05:32:00,
2013-07-31 00:42:00,64.0,53.0,-100.00,SE,140,1.0,3.0,69,0.00,,,-99.99,,2013-07-31 05:42:00,
2013-07-31 00:52:00,64.0,53.0,-100.00,SE,140,1.0,3.0,69,0.00,,,-99.99,,2013-07-31 05:52:00,
2013-07-31 01:02:00,64.0,53.0,-100.00,SE,140,1.0,3.0,69,0.00,,,-99.99,,2013-07-31 06:02:00,
2013-07-31 01:12:00,64.0,53.0,-100.00,SE,140,1.0,3.0,69,0.00,,,-99.99,,2013-07-31 06:12:00,
2013-07-31 01:43:00,63.0,54.0,-100.00,SE,125,0.0,1.0,72,0.00,,,-99.99,,2013-07-31 06:43:00,
2013-07-31 01:53:00,63.0,54.0,-100.00,SE,125,0.0,1.0,72,0.00,,,-99.99,,2013-07-31 06:53:00,
2013-07-31 02:02:00,63.0,54.0,-100.00,SE,125,0.0,1.0,72,0.00,,,-99.99,,2013-07-31 07:02:00,
2013-07-31 02:12:00,63.0,54.0,-100.00,SE,125,0.0,1.0,72,0.00,,,-99.99,,2013-07-31 07:12:00,
2013-07-31 02:32:00,63.0,54.0,-100.00,ESE,115,1.0,2.0,72,0.00,,,-99.99,,2013-07-31 07:32:00,
2013-07-31 02:43:00,63.0,54.0,-100.00,ESE,115,1.0,2.0,72,0.00,,,-99.99,,2013-07-31 07:43:00,
2013-07-31 02:52:00,63.0,54.0,-100.00,ESE,115,1.0,2.0,72,0.00,,,-99.99,,2013-07-31 07:52:00,
2013-07-31 03:02:00,63.0,54.0,-100.00,ESE,115,1.0,2.0,72,0.00,,,-99.99,,2013-07-31 08:02:00,
2013-07-31 03:12:00,63.0,54.0,-100.00,ESE,115,1.0,2.0,72,0.00,,,-99.99,,2013-07-31 08:12:00,
2013-07-31 03:42:00,62.0,55.0,-100.00,East,90,0.0,1.0,78,0.00,,,-99.99,,2013-07-31 08:42:00,
2013-07-31 03:53:00,62.0,55.0,-100.00,East,90,0.0,1.0,78,0.00,,,-99.99,,2013-07-31 08:53:00,
2013-07-31 04:02:00,62.0,55.0,-100.00,East,90,0.0,1.0,78,0.00,,,-99.99,,2013-07-31 09:02:00,
2013-07-31 04:12:00,62.0,55.0,-100.00,East,90,0.0,1.0,78,0.00,,,-99.99,,2013-07-31 09:12:00,
2013-07-31 04:33:00,62.0,56.0,-100.00,North,5,0.0,2.0,79,0.00,,,-99.99,,2013-07-31 09:33:00,
2013-07-31 04:44:00,62.0,56.0,-100.00,North,5,0.0,2.0,79,0.00,,,-99.99,,2013-07-31 09:44:00,
2013-07-31 04:52:00,62.0,56.0,-100.00,North,5,0.0,2.0,79,0.00,,,-99.99,,2013-07-31 09:52:00,
2013-07-31 05:02:00,62.0,56.0,-100.00,North,5,0.0,2.0,79,0.00,,,-99.99,,2013-07-31 10:02:00,
2013-07-31 05:12:00,62.0,56.0,-100.00,North,5,0.0,2.0,79,0.00,,,-99.99,,2013-07-31 10:12:00,
2013-07-31 05:32:00,61.0,55.0,-100.00,WNW,290,0.0,1.0,81,0.00,,,-99.99,,2013-07-31 10:32:00,
2013-07-31 05:44:00,61.0,55.0,-100.00,WNW,290,0.0,1.0,81,0.00,,,-99.99,,2013-07-31 10:44:00,
2013-07-31 05:52:00,61.0,55.0,-100.00,WNW,290,0.0,1.0,81,0.00,,,-99.99,,2013-07-31 10:52:00,
2013-07-31 06:03:00,61.0,55.0,-100.00,WNW,290,0.0,1.0,81,0.00,,,-99.99,,2013-07-31 11:03:00,
2013-07-31 06:12:00,61.0,55.0,-100.00,WNW,290,0.0,1.0,81,0.00,,,-99.99,,2013-07-31 11:12:00,
2013-07-31 06:43:00,61.0,55.0,-100.00,South,185,0.0,1.0,82,0.00,,,-99.99,,2013-07-31 11:43:00,
2013-07-31 06:53:00,61.0,55.0,-100.00,South,185,0.0,1.0,82,0.00,,,-99.99,,2013-07-31 11:53:00,
2013-07-31 07:02:00,61.0,55.0,-100.00,South,185,0.0,1.0,82,0.00,,,-99.99,,2013-07-31 12:02:00,
2013-07-31 07:12:00,61.0,55.0,-100.00,South,185,0.0,1.0,82,0.00,,,-99.99,,2013-07-31 12:12:00,
2013-07-31 07:33:00,63.0,58.0,-100.00,North,350,0.0,2.0,82,0.00,,,-99.99,,2013-07-31 12:33:00,
2013-07-31 07:43:00,63.0,58.0,-100.00,North,350,0.0,2.0,82,0.00,,,-99.99,,2013-07-31 12:43:00,
2013-07-31 07:53:00,63.0,58.0,-100.00,North,350,0.0,2.0,82,0.00,,,-99.99,,2013-07-31 12:53:00,
2013-07-31 08:02:00,63.0,58.0,-100.00,North,350,0.0,2.0,82,0.00,,,-99.99,,2013-07-31 13:02:00,
2013-07-31 08:33:00,67.0,58.0,-100.00,SW,235,0.0,1.0,72,0.00,,,-99.99,,2013-07-31 13:33:00,
2013-07-31 08:43:00,67.0,58.0,-100.00,SW,235,0.0,1.0,72,0.00,,,-99.99,,2013-07-31 13:43:00,
2013-07-31 08:53:00,67.0,58.0,-100.00,SW,235,0.0,1.0,72,0.00,,,-99.99,,2013-07-31 13:53:00,
2013-07-31 09:02:00,67.0,58.0,-100.00,SW,235,0.0,1.0,72,0.00,,,-99.99,,2013-07-31 14:02:00,
2013-07-31 09:12:00,67.0,58.0,-100.00,SW,235,0.0,1.0,72,0.00,,,-99.99,,2013-07-31 14:12:00,
2013-07-31 09:34:00,69.0,57.0,-100.00,WNW,290,2.0,6.0,66,0.00,,,-99.99,,2013-07-31 14:34:00,
2013-07-31 09:43:00,69.0,57.0,-100.00,WNW,290,2.0,6.0,66,0.00,,,-99.99,,2013-07-31 14:43:00,
2013-07-31 09:53:00,69.0,57.0,-100.00,WNW,290,2.0,6.0,66,0.00,,,-99.99,,2013-07-31 14:53:00,
2013-07-31 10:02:00,69.0,57.0,-100.00,WNW,290,2.0,6.0,66,0.00,,,-99.99,,2013-07-31 15:02:00,
2013-07-31 10:12:00,69.0,57.0,-100.00,WNW,290,2.0,6.0,66,0.00,,,-99.99,,2013-07-31 15:12:00,
2013-07-31 11:02:00,74.0,53.0,-100.00,West,265,1.0,4.0,47,0.00,,,-99.99,,2013-07-31 16:02:00,
2013-07-31 11:12:00,74.0,53.0,-100.00,West,265,1.0,4.0,47,0.00,,,-99.99,,2013-07-31 16:12:00,
2013-07-31 15:32:00,64.0,57.0,-100.00,WSW,245,0.0,1.0,79,0.00,,,-99.99,,2013-07-31 20:32:00,
2013-07-31 15:43:00,64.0,57.0,-100.00,WSW,245,0.0,1.0,79,0.00,,,-99.99,,2013-07-31 20:43:00,
2013-07-31 15:53:00,64.0,57.0,-100.00,WSW,245,0.0,1.0,79,0.00,,,-99.99,,2013-07-31 20:53:00,
2013-07-31 16:02:00,64.0,57.0,-100.00,WSW,245,0.0,1.0,79,0.00,,,-99.99,,2013-07-31 21:02:00,
2013-07-31 16:12:00,64.0,57.0,-100.00,WSW,245,0.0,1.0,79,0.00,,,-99.99,,2013-07-31 21:12:00,
2013-07-31 16:32:00,65.0,57.0,-100.00,WSW,250,2.0,9.0,75,0.00,,,-99.99,,2013-07-31 21:32:00,
2013-07-31 16:43:00,65.0,57.0,-100.00,WSW,250,2.0,9.0,75,0.00,,,-99.99,,2013-07-31 21:43:00,
2013-07-31 16:53:00,65.0,57.0,-100.00,WSW,250,2.0,9.0,75,0.00,,,-99.99,,2013-07-31 21:53:00,
2013-07-31 17:02:00,65.0,57.0,-100.00,WSW,250,2.0,9.0,75,0.00,,,-99.99,,2013-07-31 22:02:00,
2013-07-31 17:33:00,71.0,56.0,-100.00,WSW,240,1.0,6.0,60,0.00,,,-99.99,,2013-07-31 22:33:00,
2013-07-31 17:43:00,71.0,56.0,-100.00,WSW,240,1.0,6.0,60,0.00,,,-99.99,,2013-07-31 22:43:00,
2013-07-31 17:53:00,71.0,56.0,-100.00,WSW,240,1.0,6.0,60,0.00,,,-99.99,,2013-07-31 22:53:00,
2013-07-31 18:02:00,71.0,56.0,-100.00,WSW,240,1.0,6.0,60,0.00,,,-99.99,,2013-07-31 23:02:00,
2013-07-31 18:12:00,71.0,56.0,-100.00,WSW,240,1.0,6.0,60,0.00,,,-99.99,,2013-07-31 23:12:00,
2013-07-31 18:42:00,71.0,58.0,-100.00,WNW,295,1.0,8.0,62,0.00,,,-99.99,,2013-07-31 23:42:00,
2013-07-31 18:52:00,71.0,58.0,-100.00,WNW,295,1.0,8.0,62,0.00,,,-99.99,,2013-07-31 23:52:00,
2013-07-31 19:02:00,71.0,58.0,-100.00,WNW,295,1.0,8.0,62,0.00,,,-99.99,,2013-08-01 00:02:00,
2013-07-31 19:32:00,69.0,58.0,-100.00,East,85,1.0,6.0,68,0.00,,,-99.99,,2013-08-01 00:32:00,
2013-07-31 19:43:00,69.0,58.0,-100.00,East,85,1.0,6.0,68,0.00,,,-99.99,,2013-08-01 00:43:00,
2013-07-31 19:52:00,69.0,58.0,-100.00,East,85,1.0,6.0,68,0.00,,,-99.99,,2013-08-01 00:52:00,
2013-07-31 20:02:00,69.0,58.0,-100.00,East,85,1.0,6.0,68,0.00,,,-99.99,,2013-08-01 01:02:00,
2013-07-31 21:32:00,62.0,52.0,-100.00,NNE,30,0.0,2.0,70,0.00,,,-99.99,,2013-08-01 02:32:00,
2013-07-31 21:43:00,62.0,52.0,-100.00,NNE,30,0.0,2.0,70,0.00,,,-99.99,,2013-08-01 02:43:00,
2013-07-31 21:53:00,62.0,52.0,-100.00,NNE,30,0.0,2.0,70,0.00,,,-99.99,,2013-08-01 02:53:00,
2013-07-31 22:02:00,62.0,52.0,-100.00,NNE,30,0.0,2.0,70,0.00,,,-99.99,,2013-08-01 03:02:00,
2013-07-31 22:12:00,62.0,52.0,-100.00,NNE,30,0.0,2.0,70,0.00,,,-99.99,,2013-08-01 03:12:00,
2013-07-31 22:32:00,60.0,52.0,-100.00,NE,40,0.0,1.0,76,0.00,,,-99.99,,2013-08-01 03:32:00,
2013-07-31 22:43:00,60.0,52.0,-100.00,NE,40,0.0,1.0,76,0.00,,,-99.99,,2013-08-01 03:43:00,
2013-07-31 22:53:00,60.0,52.0,-100.00,NE,40,0.0,1.0,76,0.00,,,-99.99,,2013-08-01 03:53:00,
2013-07-31 23:03:00,60.0,52.0,-100.00,NE,40,0.0,1.0,76,0.00,,,-99.99,,2013-08-01 04:03:00,
2013-07-31 23:12:00,60.0,52.0,-100.00,NE,40,0.0,1.0,76,0.00,,,-99.99,,2013-08-01 04:12:00,
2013-07-31 23:43:00,57.0,51.0,-100.00,East,80,0.0,1.0,81,0.00,,,-99.99,,2013-08-01 04:43:00,
2013-07-31 23:53:00,57.0,51.0,-100.00,East,80,0.0,1.0,81,0.00,,,-99.99,,2013-08-01 04:53:00,